User: anonymous   Login
Location: Unspecified
(0.0000°N, 0.0000°E)
Time: 00:33:51
(UTC+00:00)
Language:

GSAT 7 - Orbit

View from above orbital plane
View from above orbital plane
View from above satellite
View from above satellite

Ground track
Ground track

The orbit data is extracted from the following two-line orbital elements,

1 39234U 13044B   17204.95586535 -.00000101 +00000-0 +00000-0 0  9996
2 39234 000.0678 266.1420 0001655 334.7946 119.0275 01.00272032012766
Epoch (UTC): 23 July 2017 22:56:26
Eccentricity: 0.0001655
inclination: 0.0678°
perigee height: 35779 km
apogee height: 35793 km
right ascension of ascending node: 266.1420°
argument of perigee: 334.7946°
revolutions per day: 1.00272032
mean anomaly at epoch: 119.0275°
orbit number at epoch: 1276

The dashed part of the orbit path shows where the satellite is in the earth's shadow,  

DLR